Tracking 29090 objects as of 15-Jul-2024
HD Live streaming from Space Station
objects crossing your sky now

STARLINK-3988

Track STARLINK-3988 now!
10-day predictions
STARLINK-3988 is classified as:


NORAD ID: 52625
Int'l Code: 2022-052AD
Perigee: 546.0 km
Apogee: 547.7 km
Inclination: 53.2 °
Period: 95.4 minutes
Semi major axis: 6917 km
RCS: Unknown
Launch date: May 14, 2022
Source: United States (US)
Launch site: AIR FORCE EASTERN TEST RANGE (AFETR)
Your satellite tracking list
Your tracking list is empty




NASA's NSSDC Master Catalog

Two Line Element Set (TLE):
1 52625U 22052AD  24197.00822934  .00002192  00000-0  15570-3 0  9997
2 52625  53.2163  94.6634 0001249  89.3941 270.7194 15.08849406120383
Source of the keplerian elements: AFSPC